YAOGAN-21

Last updated on Mon Sep 21 2026 00:02:45 GMT+0000 (Coordinated Universal Time)

1 40143U 14053A 26263.64338498 .00005428 00000+0 20463-3 0 9995 2 40143 97.1401 299.8125 0009549 109.3480 250.8793 15.27418855669522
UTC large
Height (km)
Speed (km/s)
/
Latitude / Longitude
Inclination (degrees)
Orbital Period (minutes)
Azimuth
Elevation
Range (km)
Doppler Factor

Next 0 passes for location: London (51.5072 / 0.1276)

No passes found over London.
YAOGAN-21